Weather at Rivne International Airport

Public forecast

Using degrees Celsius for public forecast. Weather courtesy of forecast.io.

Current aviation weather report (METAR) for Rivne International Airport

Report is more than 6 hours old.

Retrieved 2020/11/27 15:00 UTC (11 hours ago):

UKLR 271500Z 26006MPS 4400 BR OVC005 01/01 Q1018 R29/090070 NOSIG

Aviation forecast (TAF) for Rivne International Airport

Forecast is more than 12 hours old.

Retrieved 2019/08/16 12:15 UTC (1 year ago):

TAF TAF UKLR 161105Z 1612/1821 35003MPS 9999 BKN020 SCT023CB